QPF
0.00 0.00 0.02 0.00 0.00 0.00 0.00 0.00 0.00 0.00 0.00 0.00 0.00 0.00 0.00 0.00 0.00 0.00 0.00 0.00 0.00 0.00 0.00 0.00 0.00 0.00 0.00 0.00 0.00 0.00 0.00 0.00 0.00 0.00 0.00 0.00 0.00 0.00 0.00 0.01 0.00 0.00 0.00
0.00 0.00 0.00 0.00 0.00 0.00 0.00 0.00 0.00 0.00 0.00 0.00 0.00 0.00 0.00 0.00 0.00 0.00 0.00 0.00 0.00 0.00 0.00 0.00 0.00 0.00 0.00 0.00 0.00 0.00 0.00 0.00 0.00 0.00 0.00 0.00 0.00 0.00 0.02 0.02 0.00 0.00 0.00
0.00 0.00 0.00 0.00 0.00 0.00 0.00 0.00 0.00 0.00 0.00 0.00 0.00 0.00 0.00 0.00 0.00 0.00 0.00 0.00 0.00 0.00 0.00 0.00 0.00 0.00 0.00 0.00 0.00 0.00 0.00 0.00 0.00 0.00 0.00 0.00 0.00 0.01 0.06 0.12 0.03 0.00 0.00
0.00 0.00 0.00 0.01 0.00 0.00 0.00 0.00 0.00 0.00 0.00 0.00 0.00 0.00 0.00 0.00 0.00 0.00 0.00 0.00 0.00 0.00 0.00 0.00 0.00 0.00 0.00 0.00 0.00 0.00 0.00 0.00 0.00 0.00 0.00 0.00 0.00 0.00 0.00 0.05 0.06 0.01 0.00
0.00 0.00 0.00 0.00 0.00 0.00 0.00 0.00 0.00 0.00 0.00 0.00 0.00 0.00 0.00 0.00 0.00 0.00 0.00 0.00 0.00 0.00 0.00 0.00 0.00 0.00 0.00 0.00 0.00 0.00 0.00 0.00 0.00 0.00 0.00 0.00 0.00 0.00 0.00 0.00 0.01 0.02 0.01
0.00 0.00 0.00 0.00 0.00 0.00 0.00 0.00 0.00 0.00 0.00 0.00 0.00 0.00 0.00 0.00 0.00 0.00 0.00 0.00 0.00 0.00 0.00 0.00 0.00 0.00 0.00 0.00 0.00 0.00 0.00 0.00 0.00 0.00 0.00 0.00 0.00 0.01 0.03 0.02 0.00 0.01 0.00
0.00 0.00 0.00 0.00 0.00 0.00 0.00 0.00 0.00 0.00 0.00 0.00 0.00 0.00 0.00 0.00 0.00 0.00 0.00 0.00 0.00 0.00 0.00 0.00 0.00 0.00 0.00 0.00 0.00 0.00 0.00 0.00 0.00 0.00 0.00 0.00 0.00 0.00 0.00 0.01 0.00 0.01 0.02
0.00 0.00 0.00 0.00 0.00 0.00 0.00 0.00 0.00 0.00 0.00 0.00 0.00 0.00 0.00 0.00 0.00 0.00 0.00 0.00 0.00 0.00 0.00 0.00 0.00 0.00 0.00 0.00 0.00 0.00 0.00 0.00 0.00 0.00 0.00 0.00 0.02 0.00 0.01 0.01 0.05 0.06 0.07
0.00 0.00 0.00 0.00 0.00 0.00 0.00 0.00 0.00 0.00 0.00 0.00 0.00 0.00 0.00 0.00 0.00 0.00 0.00 0.00 0.00 0.00 0.00 0.00 0.00 0.00 0.00 0.00 0.01 0.10 0.13 0.04 0.01 0.00 0.00 0.00 0.00 0.07 0.07 0.03 0.02 0.05 0.09
0.00 0.00 0.00 0.00 0.00 0.00 0.00 0.00 0.00 0.00 0.00 0.00 0.00 0.00 0.00 0.00 0.00 0.00 0.00 0.00 0.00 0.00 0.00 0.00 0.00 0.06 0.08 0.05 0.05 0.10 0.09 0.05 0.00 0.00 0.00 0.00 0.00 0.04 0.09 0.09 0.01 0.02 0.04
0.00 0.00 0.00 0.00 0.00 0.00 0.00 0.00 0.00 0.00 0.00 0.00 0.00 0.00 0.00 0.00 0.00 0.00 0.00 0.00 0.00 0.04 0.15 0.11 0.06 0.06 0.06 0.06 0.02 0.02 0.01 0.00 0.00 0.00 0.00 0.00 0.00 0.00 0.00 0.12 0.13 0.02 0.05
0.00 0.00 0.00 0.00 0.00 0.00 0.00 0.00 0.00 0.00 0.00 0.00 0.00 0.00 0.00 0.00 0.00 0.00 0.01 0.02 0.03 0.05 0.13 0.02 0.04 0.04 0.03 0.00 0.00 0.00 0.00 0.00 0.00 0.00 0.00 0.00 0.00 0.00 0.00 0.06 0.14 0.05 0.05
0.00 0.00 0.00 0.00 0.00 0.00 0.00 0.00 0.00 0.00 0.00 0.00 0.00 0.00 0.00 0.00 0.00 0.01 0.01 0.04 0.05 0.02 0.00 0.00 0.00 0.00 0.04 0.00 0.00 0.00 0.00 0.00 0.00 0.00 0.00 0.00 0.00 0.00 0.00 0.00 0.09 0.07 0.07
0.00 0.00 0.00 0.00 0.00 0.00 0.00 0.00 0.00 0.00 0.00 0.00 0.00 0.00 0.00 0.00 0.00 0.05 0.03 0.10 0.08 0.00 0.00 0.02 0.02 0.00 0.00 0.00 0.00 0.00 0.00 0.00 0.00 0.00 0.00 0.00 0.00 0.00 0.00 0.02 0.03 0.04 0.05
0.00 0.00 0.00 0.00 0.00 0.00 0.00 0.00 0.00 0.00 0.00 0.00 0.00 0.00 0.00 0.00 0.00 0.05 0.04 0.06 0.04 0.01 0.00 0.02 0.05 0.01 0.00 0.00 0.00 0.00 0.00 0.00 0.00 0.00 0.00 0.00 0.00 0.00 0.01 0.05 0.02 0.02 0.03
0.00 0.00 0.00 0.00 0.00 0.00 0.00 0.00 0.00 0.00 0.00 0.00 0.00 0.00 0.00 0.02 0.00 0.06 0.10 0.01 0.00 0.00 0.00 0.02 0.01 0.00 0.00 0.00 0.00 0.00 0.00 0.00 0.00 0.00 0.00 0.00 0.00 0.00 0.00 0.02 0.00 0.01 0.01
0.00 0.00 0.00 0.00 0.00 0.00 0.00 0.00 0.00 0.00 0.00 0.00 0.00 0.00 0.00 0.02 0.00 0.05 0.06 0.00 0.00 0.00 0.00 0.01 0.00 0.00 0.00 0.00 0.01 0.00 0.00 0.00 0.00 0.00 0.00 0.00 0.00 0.00 0.00 0.00 0.00 0.00 0.00
0.00 0.00 0.00 0.00 0.00 0.00 0.00 0.00 0.00 0.00 0.00 0.00 0.01 0.03 0.01 0.00 0.03 0.11 0.02 0.00 0.00 0.00 0.00 0.00 0.00 0.00 0.00 0.00 0.00 0.00 0.00 0.00 0.00 0.00 0.00 0.00 0.00 0.00 0.00 0.00 0.00 0.00 0.00
0.00 0.00 0.00 0.00 0.00 0.00 0.00 0.00 0.00 0.00 0.00 0.01 0.04 0.02 0.01 0.02 0.04 0.07 0.02 0.03 0.00 0.00 0.00 0.00 0.00 0.00 0.00 0.00 0.00 0.00 0.00 0.00 0.00 0.00 0.00 0.00 0.00 0.00 0.00 0.00 0.00 0.00 0.00
0.00 0.00 0.00 0.00 0.00 0.00 0.00 0.00 0.00 0.00 0.00 0.00 0.00 0.00 0.01 0.04 0.03 0.03 0.00 0.03 0.00 0.00 0.00 0.00 0.00 0.00 0.00 0.00 0.00 0.00 0.00 0.00 0.00 0.00 0.00 0.00 0.00 0.00 0.00 0.00 0.00 0.00 0.00
0.00 0.00 0.00 0.00 0.00 0.00 0.00 0.00 0.00 0.00 0.00 0.00 0.00 0.00 0.00 0.00 0.01 0.02 0.02 0.05 0.00 0.00 0.00 0.00 0.00 0.00 0.00 0.00 0.00 0.00 0.00 0.00 0.00 0.00 0.00 0.00 0.00 0.00 0.00 0.00 0.00 0.00 0.00
0.00 0.00 0.00 0.00 0.00 0.00 0.00 0.00 0.00 0.00 0.00 0.00 0.00 0.00 0.00 0.00 0.00 0.02 0.03 0.02 0.00 0.00 0.00 0.00 0.00 0.00 0.00 0.02 0.00 0.00 0.00 0.00 0.00 0.00 0.00 0.00 0.00 0.00 0.00 0.00 0.00 0.00 0.00
0.00 0.00 0.00 0.00 0.00 0.00 0.00 0.00 0.00 0.00 0.00 0.00 0.00 0.00 0.00 0.00 0.00 0.02 0.05 0.02 0.01 0.00 0.00 0.00 0.00 0.00 0.00 0.00 0.00 0.00 0.00 0.00 0.00 0.00 0.00 0.00 0.00 0.00 0.00 0.00 0.00 0.00 0.00
0.00 0.00 0.00 0.00 0.00 0.00 0.00 0.00 0.00 0.00 0.00 0.00 0.00 0.01 0.00 0.00 0.00 0.02 0.03 0.05 0.03 0.01 0.02 0.00 0.00 0.00 0.00 0.00 0.00 0.00 0.00 0.00 0.00 0.00 0.00 0.00 0.00 0.00 0.00 0.00 0.00 0.00 0.00
0.00 0.00 0.00 0.00 0.00 0.00 0.00 0.00 0.00 0.00 0.00 0.00 0.00 0.00 0.00 0.00 0.00 0.01 0.00 0.00 0.00 0.03 0.09 0.07 0.08 0.04 0.03 0.00 0.00 0.00 0.00 0.00 0.00 0.00 0.00 0.00 0.00 0.00 0.00 0.00 0.00 0.00 0.00
0.00 0.00 0.00 0.00 0.00 0.00 0.00 0.00 0.00 0.00 0.00 0.00 0.00 0.00 0.00 0.00 0.00 0.00 0.00 0.01 0.02 0.02 0.06 0.12 0.07 0.05 0.04 0.02 0.01 0.00 0.01 0.02 0.02 0.02 0.02 0.00 0.00 0.00 0.00 0.00 0.00 0.00 0.00
MSLP
1015.69 1015.48 1015.47 1015.61 1015.78 1015.92 1016.12 1016.29 1016.42 1016.53 1016.62 1016.62 1016.61 1016.66 1016.76 1016.82 1016.98 1017.15 1017.20 1017.19 1017.18 1017.17 1017.29 1017.37 1017.37 1017.47 1017.46 1017.44 1017.48 1017.52 1017.70 1017.79 1017.83 1017.87 1017.89 1018.09 1018.12 1018.15 1018.20 1018.38 1018.49 1018.70 1018.86
1015.10 1015.43 1015.58 1015.83 1015.96 1016.15 1016.34 1016.50 1016.62 1016.72 1016.79 1016.78 1016.76 1016.83 1016.94 1017.05 1017.16 1017.26 1017.36 1017.40 1017.43 1017.44 1017.45 1017.48 1017.58 1017.70 1017.66 1017.60 1017.56 1017.69 1017.85 1017.88 1017.98 1018.07 1018.18 1018.29 1018.39 1018.38 1018.38 1018.42 1018.61 1018.88 1019.05
1015.22 1015.49 1015.76 1015.96 1016.20 1016.40 1016.57 1016.76 1016.85 1016.92 1016.95 1016.99 1017.00 1017.06 1017.15 1017.28 1017.42 1017.48 1017.49 1017.55 1017.70 1017.71 1017.77 1017.81 1017.87 1017.83 1017.79 1017.78 1017.83 1017.84 1017.96 1018.05 1018.16 1018.21 1018.31 1018.43 1018.48 1018.51 1018.48 1018.40 1018.66 1018.83 1019.03
1015.17 1015.67 1015.88 1016.14 1016.49 1016.72 1016.83 1016.93 1017.06 1017.16 1017.27 1017.32 1017.30 1017.44 1017.53 1017.69 1017.70 1017.56 1017.61 1017.77 1017.88 1017.92 1017.99 1018.03 1018.06 1018.03 1017.95 1017.92 1017.94 1018.01 1018.01 1018.07 1018.23 1018.30 1018.38 1018.46 1018.53 1018.52 1018.50 1018.62 1018.55 1018.84 1019.03
1015.39 1015.75 1016.02 1016.29 1016.61 1016.85 1017.02 1017.15 1017.31 1017.42 1017.49 1017.48 1017.60 1017.71 1017.81 1017.91 1017.79 1017.77 1017.80 1017.93 1017.93 1017.99 1018.05 1018.13 1018.07 1018.04 1018.08 1018.08 1018.01 1018.00 1018.07 1018.09 1018.14 1018.31 1018.46 1018.49 1018.61 1018.65 1018.64 1018.66 1018.76 1018.91 1019.02
1015.75 1015.91 1016.16 1016.46 1016.68 1016.89 1017.12 1017.35 1017.50 1017.57 1017.64 1017.67 1017.80 1017.88 1017.97 1018.01 1018.01 1017.97 1017.94 1017.93 1017.91 1017.95 1018.04 1018.12 1018.11 1018.11 1018.06 1018.00 1017.94 1017.86 1017.90 1017.99 1017.99 1018.26 1018.43 1018.45 1018.49 1018.60 1018.69 1018.78 1018.86 1018.78 1018.92
1016.08 1016.26 1016.40 1016.57 1016.79 1017.00 1017.21 1017.45 1017.66 1017.81 1017.93 1017.90 1017.94 1017.94 1018.02 1018.12 1018.13 1018.04 1017.90 1017.92 1018.00 1017.96 1017.97 1018.01 1017.87 1017.98 1017.90 1017.86 1017.71 1017.80 1017.79 1017.74 1017.86 1018.11 1018.31 1018.42 1018.47 1018.45 1018.52 1018.58 1018.86 1018.91 1019.17
1016.31 1016.46 1016.69 1016.83 1017.00 1017.22 1017.42 1017.64 1017.81 1017.99 1018.09 1018.01 1018.00 1018.03 1018.07 1018.13 1018.11 1018.01 1017.92 1017.96 1017.95 1017.87 1017.82 1017.79 1017.75 1017.80 1017.75 1017.64 1017.57 1017.62 1017.61 1017.55 1017.53 1017.88 1018.15 1018.24 1018.38 1018.40 1018.41 1018.45 1018.45 1018.63 1018.99
1016.31 1016.67 1016.94 1017.03 1017.17 1017.35 1017.55 1017.74 1017.87 1018.01 1018.08 1018.06 1018.06 1018.07 1018.07 1018.07 1017.98 1017.84 1017.83 1017.84 1017.80 1017.75 1017.69 1017.68 1017.61 1017.55 1017.50 1017.41 1017.41 1017.27 1017.30 1017.39 1017.40 1017.72 1017.84 1018.07 1018.08 1018.16 1018.17 1018.28 1018.26 1018.36 1018.68
1016.55 1016.78 1017.13 1017.31 1017.35 1017.60 1017.71 1017.81 1017.97 1018.09 1018.12 1018.04 1017.98 1017.93 1017.94 1017.85 1017.74 1017.63 1017.58 1017.61 1017.55 1017.53 1017.39 1017.32 1017.17 1017.21 1017.08 1017.01 1017.09 1017.06 1017.17 1017.18 1017.29 1017.54 1017.66 1017.83 1017.97 1017.93 1017.78 1018.03 1018.05 1018.28 1018.47
1016.91 1017.08 1017.14 1017.41 1017.50 1017.70 1017.85 1018.01 1017.99 1018.07 1018.09 1018.01 1017.88 1017.77 1017.73 1017.78 1017.82 1017.69 1017.52 1017.52 1017.26 1017.20 1017.15 1016.86 1016.69 1016.83 1016.66 1016.65 1016.70 1016.78 1016.82 1017.08 1017.18 1017.42 1017.49 1017.59 1017.65 1017.64 1017.67 1017.63 1017.90 1018.00 1018.28
1016.89 1017.11 1017.28 1017.38 1017.55 1017.72 1017.76 1017.95 1018.14 1018.17 1018.17 1018.14 1018.03 1017.91 1017.80 1017.82 1017.92 1017.66 1017.34 1017.15 1016.93 1016.93 1016.78 1016.56 1016.55 1016.48 1016.38 1016.50 1016.52 1016.52 1016.70 1016.95 1016.95 1017.02 1017.12 1017.26 1017.29 1017.31 1017.51 1017.46 1017.45 1017.83 1017.94
1016.49 1016.97 1017.17 1017.32 1017.45 1017.70 1017.86 1017.91 1018.08 1018.20 1018.16 1018.11 1018.12 1018.02 1017.97 1017.81 1017.97 1017.62 1017.36 1017.19 1017.09 1016.78 1016.67 1016.56 1016.39 1016.48 1016.42 1016.43 1016.39 1016.41 1016.55 1016.70 1016.80 1016.64 1016.58 1016.77 1016.85 1016.87 1017.05 1017.09 1017.15 1017.40 1017.73
1016.32 1016.52 1016.76 1016.94 1017.29 1017.47 1017.72 1017.83 1017.86 1017.97 1017.90 1017.90 1017.90 1017.94 1017.94 1017.76 1017.68 1017.59 1017.23 1017.12 1017.04 1016.82 1016.70 1016.65 1016.79 1016.44 1016.46 1016.36 1016.24 1016.11 1016.16 1016.17 1016.12 1016.19 1016.25 1016.37 1016.50 1016.65 1016.69 1016.72 1016.79 1017.00 1017.26
1016.03 1016.21 1016.38 1016.58 1016.90 1017.18 1017.51 1017.57 1017.63 1017.58 1017.55 1017.52 1017.58 1017.57 1017.54 1017.54 1017.60 1017.77 1017.19 1017.04 1017.10 1017.01 1016.98 1016.68 1016.47 1016.41 1016.20 1016.06 1016.13 1016.09 1016.02 1016.04 1015.85 1015.85 1015.94 1016.03 1016.31 1016.45 1016.47 1016.43 1016.55 1016.67 1016.87
1015.46 1015.69 1015.98 1016.15 1016.31 1016.76 1017.03 1017.24 1017.18 1017.26 1017.22 1017.33 1017.21 1017.07 1017.15 1017.25 1017.30 1017.37 1017.17 1016.88 1016.92 1016.81 1016.73 1016.71 1016.46 1016.18 1016.15 1015.99 1015.82 1015.70 1015.71 1015.73 1015.83 1015.70 1015.62 1015.74 1016.01 1016.13 1016.18 1016.22 1016.29 1016.46 1016.67
1014.89 1015.11 1015.52 1015.77 1015.90 1016.37 1016.59 1016.71 1016.87 1016.93 1016.94 1017.03 1016.93 1016.71 1016.70 1016.87 1016.90 1017.22 1017.15 1017.02 1016.76 1016.66 1016.48 1016.23 1016.16 1016.11 1016.08 1015.80 1015.50 1015.29 1015.32 1015.37 1015.20 1015.21 1015.55 1015.81 1016.01 1016.16 1016.10 1016.27 1016.40 1016.49 1016.55
1014.41 1014.76 1015.01 1015.37 1015.68 1016.01 1016.24 1016.30 1016.40 1016.61 1016.69 1016.60 1016.69 1016.54 1016.33 1016.38 1016.79 1016.97 1017.01 1016.86 1016.48 1016.42 1016.43 1016.37 1016.43 1016.45 1016.45 1016.31 1015.93 1015.56 1015.33 1015.20 1015.06 1015.29 1015.41 1015.70 1016.06 1016.18 1016.34 1016.55 1016.69 1016.71 1016.68
1013.77 1014.30 1014.66 1014.93 1015.19 1015.51 1015.78 1016.00 1016.20 1016.26 1016.35 1016.25 1016.46 1016.12 1016.04 1016.09 1016.61 1016.67 1016.70 1016.69 1016.33 1016.26 1016.22 1016.22 1016.41 1016.62 1016.62 1016.40 1015.98 1015.69 1015.56 1015.52 1015.34 1015.38 1015.47 1015.69 1015.88 1016.20 1016.44 1016.61 1016.70 1016.82 1016.90
1013.27 1013.75 1014.09 1014.48 1014.82 1015.18 1015.64 1015.97 1016.17 1016.28 1016.08 1016.06 1016.04 1015.84 1015.87 1015.89 1016.22 1016.49 1016.46 1016.51 1016.26 1016.31 1016.14 1016.23 1016.45 1016.62 1016.57 1016.59 1016.21 1016.14 1015.88 1015.77 1015.62 1015.57 1015.68 1015.71 1016.08 1016.38 1016.55 1016.65 1016.78 1016.95 1016.98
1012.91 1013.42 1013.60 1014.06 1014.35 1014.90 1015.44 1015.78 1016.05 1016.10 1015.97 1015.97 1015.71 1015.49 1015.45 1015.69 1016.14 1016.37 1016.55 1016.36 1016.37 1016.52 1016.40 1016.52 1016.60 1016.72 1016.68 1016.53 1016.47 1016.17 1016.05 1015.95 1015.90 1015.89 1015.84 1015.96 1016.01 1016.23 1016.40 1016.60 1016.78 1017.02 1017.10
1011.63 1012.42 1013.13 1013.34 1013.90 1014.25 1014.59 1014.99 1015.31 1015.48 1015.38 1015.21 1015.17 1015.32 1015.32 1015.26 1015.59 1016.28 1016.35 1016.33 1016.33 1016.53 1016.50 1016.45 1016.72 1016.90 1016.89 1016.71 1016.72 1016.74 1016.65 1016.33 1016.04 1016.18 1016.16 1016.26 1016.29 1016.29 1016.29 1016.57 1016.80 1016.91 1017.04
1011.35 1011.43 1012.07 1012.66 1013.14 1013.62 1014.27 1014.96 1015.39 1015.39 1015.26 1015.18 1015.24 1015.21 1015.09 1015.12 1015.38 1015.87 1016.14 1016.20 1016.38 1016.48 1016.53 1016.51 1016.69 1016.94 1016.95 1016.82 1016.76 1016.90 1017.13 1017.26 1017.08 1016.60 1016.44 1016.61 1016.67 1016.59 1016.44 1016.45 1016.71 1016.85 1016.96
1010.04 1010.82 1011.19 1011.96 1012.64 1013.17 1013.76 1014.43 1014.83 1014.94 1015.11 1015.03 1015.12 1015.12 1015.01 1014.82 1014.88 1015.35 1015.77 1015.98 1016.17 1016.38 1016.85 1016.57 1016.61 1017.00 1017.20 1017.02 1016.91 1016.98 1017.17 1017.45 1017.55 1017.28 1016.97 1016.82 1016.50 1016.47 1016.35 1016.39 1016.52 1016.62 1016.72
1009.19 1010.03 1010.55 1011.22 1012.02 1012.77 1013.27 1013.84 1014.39 1014.68 1014.70 1014.70 1014.88 1014.92 1014.80 1014.77 1014.70 1014.70 1014.87 1015.26 1015.65 1015.72 1016.06 1016.44 1016.82 1017.22 1017.26 1017.10 1016.89 1016.76 1016.92 1017.21 1017.34 1017.66 1017.38 1016.98 1016.77 1016.40 1016.32 1016.24 1016.21 1016.48 1016.59
1008.54 1009.43 1010.14 1010.95 1011.21 1012.28 1012.90 1013.44 1013.76 1014.17 1014.44 1014.71 1014.64 1014.62 1014.44 1014.46 1014.42 1014.37 1014.58 1014.51 1015.05 1015.47 1015.73 1015.83 1016.33 1016.51 1016.62 1016.60 1016.48 1016.53 1016.80 1017.08 1017.25 1017.47 1017.45 1017.23 1016.97 1016.40 1016.29 1016.30 1016.27 1016.27 1016.45
Thickness
5773 5773 5774 5771 5770 5770 5769 5768 5768 5767 5767 5767 5769 5770 5769 5769 5767 5766 5765 5765 5765 5765 5764 5763 5763 5761 5760 5760 5760 5759 5758 5756 5755 5754 5754 5751 5750 5749 5749 5747 5747 5745 5744
5780 5776 5775 5772 5771 5771 5770 5769 5769 5769 5768 5771 5773 5772 5771 5770 5768 5767 5766 5765 5765 5765 5764 5763 5762 5759 5759 5760 5760 5759 5757 5756 5754 5752 5750 5749 5748 5748 5747 5747 5745 5744 5743
5782 5778 5776 5774 5772 5772 5771 5770 5770 5770 5771 5772 5774 5773 5771 5770 5770 5768 5767 5767 5765 5764 5763 5762 5760 5760 5760 5759 5758 5758 5756 5754 5753 5751 5750 5750 5748 5747 5747 5747 5744 5743 5741
5784 5780 5778 5775 5773 5772 5771 5770 5770 5770 5771 5772 5773 5771 5770 5769 5770 5770 5769 5767 5766 5764 5762 5761 5760 5761 5761 5760 5759 5758 5757 5755 5753 5752 5753 5751 5749 5749 5748 5747 5746 5742 5738
5785 5782 5779 5776 5774 5773 5772 5771 5770 5771 5771 5773 5772 5771 5770 5770 5770 5771 5770 5768 5767 5765 5764 5762 5761 5760 5760 5759 5760 5759 5758 5757 5755 5755 5754 5753 5752 5749 5748 5747 5743 5741 5739
5785 5783 5779 5777 5776 5775 5774 5772 5771 5772 5773 5774 5772 5771 5770 5770 5770 5770 5769 5769 5768 5767 5765 5763 5762 5761 5759 5759 5761 5761 5760 5759 5758 5756 5755 5753 5751 5749 5746 5745 5743 5742 5741
5786 5782 5779 5778 5778 5777 5775 5773 5772 5772 5772 5773 5773 5773 5772 5771 5770 5770 5771 5770 5768 5768 5767 5765 5764 5762 5763 5762 5763 5763 5763 5763 5761 5759 5757 5755 5753 5751 5749 5748 5745 5743 5741
5787 5782 5778 5777 5778 5778 5776 5774 5773 5772 5772 5773 5774 5774 5773 5772 5772 5772 5772 5771 5771 5771 5769 5768 5767 5766 5767 5766 5766 5766 5766 5766 5765 5761 5758 5757 5755 5753 5751 5748 5746 5746 5743
5787 5783 5779 5778 5778 5778 5777 5775 5775 5774 5773 5774 5775 5775 5775 5775 5775 5775 5774 5774 5774 5773 5772 5770 5769 5770 5769 5770 5770 5772 5770 5768 5768 5763 5761 5760 5759 5756 5754 5751 5749 5746 5744
5788 5784 5780 5778 5778 5778 5778 5776 5776 5775 5775 5776 5777 5778 5778 5778 5779 5779 5778 5778 5777 5776 5776 5775 5775 5775 5776 5777 5776 5775 5774 5772 5770 5767 5765 5763 5762 5760 5759 5755 5754 5750 5747
5786 5785 5782 5780 5779 5779 5777 5776 5776 5777 5777 5778 5780 5780 5781 5782 5781 5781 5782 5780 5781 5780 5780 5782 5782 5781 5782 5782 5782 5780 5778 5776 5773 5769 5769 5766 5764 5762 5761 5760 5756 5754 5749
5785 5785 5783 5782 5781 5780 5779 5778 5777 5779 5779 5779 5780 5781 5782 5783 5783 5783 5785 5786 5786 5785 5785 5786 5786 5787 5788 5787 5785 5784 5782 5780 5777 5776 5774 5771 5768 5766 5764 5763 5763 5758 5756
5791 5787 5786 5784 5783 5782 5781 5781 5780 5780 5781 5781 5781 5782 5782 5784 5783 5786 5788 5789 5789 5790 5790 5790 5791 5789 5790 5789 5789 5787 5786 5784 5782 5782 5781 5779 5776 5772 5769 5768 5766 5763 5759
5792 5791 5791 5788 5786 5785 5783 5783 5783 5783 5784 5784 5784 5783 5784 5786 5787 5787 5790 5791 5791 5792 5792 5791 5789 5792 5791 5791 5792 5792 5792 5792 5790 5789 5788 5785 5783 5779 5775 5774 5772 5768 5764
5794 5794 5794 5792 5789 5787 5785 5786 5786 5786 5787 5787 5786 5787 5788 5789 5788 5786 5790 5792 5791 5791 5791 5792 5793 5793 5794 5795 5795 5794 5795 5795 5795 5794 5792 5790 5786 5783 5781 5778 5776 5772 5768
5799 5798 5797 5796 5794 5791 5789 5788 5789 5789 5790 5789 5790 5791 5790 5791 5791 5789 5791 5793 5793 5792 5793 5793 5793 5795 5796 5797 5799 5799 5798 5798 5796 5796 5796 5794 5790 5786 5785 5782 5779 5775 5771
5803 5803 5801 5799 5797 5795 5793 5792 5791 5791 5791 5791 5792 5793 5794 5793 5793 5790 5790 5792 5794 5794 5795 5796 5796 5795 5796 5798 5801 5803 5803 5802 5802 5800 5797 5794 5791 5788 5786 5784 5780 5776 5774
5806 5804 5804 5803 5800 5797 5796 5795 5794 5793 5793 5794 5793 5794 5797 5797 5793 5791 5790 5792 5794 5795 5796 5796 5795 5792 5791 5792 5796 5800 5803 5804 5804 5800 5798 5795 5791 5789 5786 5783 5779 5777 5775
5809 5807 5805 5805 5803 5801 5798 5796 5795 5795 5796 5796 5794 5796 5797 5797 5793 5792 5791 5792 5793 5795 5797 5796 5794 5792 5790 5792 5797 5799 5801 5801 5802 5799 5799 5796 5794 5790 5785 5782 5778 5774 5770
5812 5810 5808 5807 5805 5803 5800 5796 5795 5794 5796 5796 5796 5796 5796 5796 5793 5791 5791 5791 5791 5793 5797 5796 5793 5793 5791 5791 5795 5794 5798 5799 5800 5799 5797 5795 5792 5788 5784 5781 5776 5771 5767
5812 5809 5809 5807 5807 5804 5800 5796 5794 5793 5795 5795 5796 5797 5796 5794 5790 5788 5788 5789 5789 5790 5792 5793 5792 5790 5789 5791 5790 5792 5794 5795 5797 5797 5795 5793 5792 5788 5785 5780 5776 5770 5765
5821 5815 5810 5811 5808 5808 5806 5803 5800 5799 5799 5800 5799 5797 5796 5795 5791 5787 5789 5789 5789 5789 5790 5791 5789 5785 5785 5788 5783 5782 5776 5784 5792 5792 5792 5790 5788 5786 5783 5778 5774 5768 5764
5820 5823 5818 5816 5814 5812 5807 5802 5800 5799 5798 5797 5796 5795 5796 5794 5791 5788 5787 5787 5787 5787 5786 5787 5786 5783 5780 5784 5785 5779 5768 5764 5773 5784 5786 5785 5783 5782 5779 5777 5772 5768 5764
5830 5829 5826 5820 5816 5813 5810 5805 5800 5796 5792 5795 5795 5795 5795 5794 5794 5790 5788 5787 5786 5785 5780 5783 5783 5780 5778 5778 5780 5779 5776 5771 5766 5767 5777 5779 5781 5778 5777 5775 5772 5769 5766
5837 5831 5829 5825 5819 5815 5811 5806 5800 5795 5796 5797 5795 5795 5795 5794 5795 5794 5794 5790 5789 5788 5785 5782 5778 5776 5775 5776 5777 5778 5776 5773 5772 5766 5763 5769 5773 5777 5775 5774 5772 5768 5765
5840 5834 5829 5823 5822 5815 5810 5806 5803 5798 5796 5794 5796 5796 5798 5797 5799 5798 5795 5796 5791 5788 5785 5784 5782 5781 5781 5781 5781 5779 5774 5770 5767 5764 5761 5764 5766 5772 5774 5772 5769 5767 5764